Location: Croisilles
(50.1998°N, 2.8793°E)
Time: 12:57:42
(UTC+00:00)

Meteor 1-21 Rocket - Pass Details

Date: 21 January 2021
Orbit: 834 x 906 km, 81.2° (Epoch: 26 February)

Event Time Altitude Azimuth Distance (km) Brightness Sun altitude
Rises 18:05:33 0° 175° (S) 3,370 7.4 -15.9°
Reaches altitude 10° 18:07:59 10° 171° (S) 2,439 6.6 -16.3°
Maximum altitude 18:13:20 55° 96° (E) 1,005 4.2 -17.1°
Drops below altitude 10° 18:18:45 10° 20° (NNE) 2,470 6.3 -18.0°
Sets 18:21:14 0° 16° (NNE) 3,417 7.1 -18.4°
Enters shadow 18:21:14 - 16° (NNE) 3,419 7.1 -18.4°
